Regional Weather Roundup
Issued by NWS

Home | Current Version | Previous Version | Text Only | Print | Product List | Glossary Off
Versions: 1 2 3 4 5 6 7 8 9 10 11 12 13 14 15 16 17 18 19 20 21 22 23 24 25 26 27 28 29 30 31 32 33 34 35 36 37 38 39 40 41 42 43 44 45 46 47 48 49 50

000
ASUS43 KOAX 181610
RWRNE

WEATHER ROUNDUP FOR NEBRASKA
NATIONAL WEATHER SERVICE OMAHA NE
1000 AM CST SUN FEB 18 2018

NOTES: SATELLITE DATA IS BEING USED TO AUGMENT CLOUD COVER ABOVE
       12000 FEET.
       "FAIR" INDICATES FEW OR NO CLOUDS BELOW 12,000 FEET WITH NO
       SIGNIFICANT WEATHER AND/OR OBSTRUCTIONS TO VISIBILITY.


NEZ001>004-019>022-054>056-181700-
NEBRASKA PANHANDLE

CITY           SKY/WX    TMP DP  RH WIND       PRES   REMARKS
SCOTTSBLUFF    MOSUNNY   54  16  22 SW14      29.49F
ALLIANCE       PTSUNNY   48  19  31 W7        29.47F
CHADRON        PTSUNNY   33  27  78 SE8       29.54R WCI  26
GORDON         FAIR      33  23  67 N8        29.53R WCI  26
KIMBALL        MOSUNNY   44  18  35 CALM      29.53F
SIDNEY         MOSUNNY   54  18  24 W8        29.53F
$$

NEZ057>060-069>072-079>082-181700-
SOUTHWEST NEBRASKA

CITY           SKY/WX    TMP DP  RH WIND       PRES   REMARKS
NORTH PLATTE   CLOUDY    40  27  59 SW8       29.56F WCI  34
IMPERIAL       CLOUDY    39  25  57 S5        29.54F
LEXINGTON      CLOUDY    43  27  53 S23G30    29.59F
MCCOOK         CLOUDY    43  30  60 S18       29.56F
OGALLALA       CLOUDY    35  26  68 CALM      29.54S
$$

NEZ005>010-023>029-035>040-094-181700-
NORTH CENTRAL NEBRASKA

CITY           SKY/WX    TMP DP  RH WIND       PRES   REMARKS
VALENTINE      CLOUDY    45  23  42 W6        29.51R
AINSWORTH      CLOUDY    40  25  54 S23       29.47F WCI  30
BROKEN BOW     CLOUDY    40  27  59 S13       29.58S WCI  32
O`NEILL        CLOUDY    43  27  53 S23G33    29.52F
ORD            CLOUDY    42  26  53 S18       29.58F
THEDFORD       CLOUDY    40  24  53 SW14G22   29.52F WCI  32
$$

NEZ041-046>049-061>064-073>077-083>087-181700-
SOUTH CENTRAL NEBRASKA

CITY           SKY/WX    TMP DP  RH WIND       PRES   REMARKS
GRAND ISLAND   MOSUNNY   45  24  43 S28G40    29.64F
AURORA         CLOUDY    46  25  44 S23G31    29.67F
HASTINGS       CLOUDY    45  22  40 S18G40    29.67F
HEBRON         CLOUDY    47  28  46 S33G40    29.75F
HOLDREGE       CLOUDY    47  27  47 S20G31    29.63F
KEARNEY        CLOUDY    45  25  45 S24G32    29.64F
YORK           MOSUNNY   45  28  53 S30G39    29.70F
$$

NEZ011>018-030>034-042>045-181700-
NORTHEAST NEBRASKA

CITY           SKY/WX    TMP DP  RH WIND       PRES   REMARKS
NORFOLK        CLOUDY    41  26  55 S35G48    29.57F
ALBION         CLOUDY    43  28  54 S14       29.64S
BLAIR          CLOUDY    45  30  55 S31G39    29.75F
COLUMBUS       CLOUDY    42  27  55 S23G35    29.66F
FREMONT        CLOUDY    44  28  53 S21G31    29.73F
TEKAMAH        CLOUDY    40  29  64 S30G40    29.73F WCI  28
WAYNE          MOSUNNY   42  26  53 S30G40    29.62F
$$

NEZ050>053-065>068-078-088>093-181700-
SOUTHEAST NEBRASKA

CITY           SKY/WX    TMP DP  RH WIND       PRES   REMARKS
LINCOLN        CLOUDY    47  27  45 S35G45    29.74F
OMAHA EPPLEY   CLOUDY    42  30  62 S16G26    29.81S
BEATRICE       CLOUDY    47  31  52 S25G33    29.80F
FALLS CITY     CLOUDY    45  30  55 S28G43    29.90F
NEBRASKA CITY  PTSUNNY   46  33  62 S31G43    29.84F
PLATTSMOUTH    CLOUDY    45  33  63 S26G35    29.82F
$$

NEZ044-045-051>053-067-181700-
OMAHA AREA

CITY           SKY/WX    TMP DP  RH WIND       PRES   REMARKS
OMAHA EPPLEY   CLOUDY    42  30  62 S16G26    29.81S
BLAIR          CLOUDY    45  30  55 S31G39    29.75F
FREMONT        CLOUDY    44  28  53 S21G31    29.73F
MILLARD        CLOUDY    46  30  54 S15G28    29.83S
OFFUTT AFB     CLOUDY    44  32  62 S16       29.83S
PLATTSMOUTH    CLOUDY    45  33  63 S26G35    29.82F
WAHOO          FAIR      46  27  48 S24G36    29.77F
$$




USA.gov is the U.S. government's official web portal to all federal, state and local government web resources and services.